Simultaneous Nadir Overpasses (SNOs) Predictions

Prediction of SNOs between METOP-B and NOAA-19 Satellite Orbit:

Table of predicted SNOs for the next 14.0 days since TLE Epoch: 8/3/2024
Index Date (METOP-B) Time (METOP-B) Lat,Lon (METOP-B) SZA (METOP-B ) Date (NOAA-19) Time (NOAA-19) Lat,Lon (NOAA-19) SZA (NOAA-19 ) Distance(km) Time Diff (sec)
1 08/06/2024 00:27:30 49.07, -56.83 100.22 08/06/2024 00:26:26 49.08, -56.84 100.07 1.48 64
2 08/06/2024 01:17:50 -48.03, 110.95 78.92 08/06/2024 01:16:58 -48.01, 110.92 79.03 3.40 52
3 08/06/2024 02:08:11 46.72, -81.20 102.17 08/06/2024 02:07:42 46.69, -81.30 102.08 8.54 29
4 08/06/2024 02:58:36 -45.97, 86.44 77.21 08/06/2024 02:58:20 -45.96, 86.29 77.32 11.71 16
5 08/06/2024 03:49:05 45.11,-105.92 103.51 08/06/2024 03:49:12 45.09,-106.15 103.41 18.09 7
6 08/06/2024 04:39:42 -45.06, 61.44 76.45 08/06/2024 04:40:01 -45.00, 61.18 76.51 21.83 19
7 08/06/2024 05:30:26 45.07,-131.24 103.56 08/06/2024 05:31:08 44.99,-131.59 103.52 29.10 42



Historial Predications of SNOs between METOP-B and NOAA-19
